0610300051,2007,01,01,00,0.36
0610300051,2007,01,01,01,0.26
0610300051,2007,01,01,02,0.3
0610300051,2007,01,01,03,0.15
0610300051,2007,01,01,04,0.47
0610300051,2007,01,01,05,0.84
0610300051,2007,01,01,06,0.6
0610300051,2007,01,01,07,1.04
0610300051,2007,01,01,08,1.68
0610300051,2007,01,01,09,1.96
0610300051,2007,01,01,10,2.53
0610300051,2007,01,01,11,2.95
0610300051,2007,01,01,12,3.33
0610300051,2007,01,01,13,3.33
0610300051,2007,01,01,14,3.21
0610300051,2007,01,01,15,2.6
0610300051,2007,01,01,16,1.7
0610300051,2007,01,01,17,0.62
0610300051,2007,01,01,18,0.46
0610300051,2007,01,01,19,0.53
0610300051,2007,01,01,20,1.15
0610300051,2007,01,01,21,1.5
0610300051,2007,01,01,22,1.62
0610300051,2007,01,01,23,1.64
0610300051,2007,01,02,00,1.04
0610300051,2007,01,02,01,1.56
0610300051,2007,01,02,02,1.52
0610300051,2007,01,02,03,1.16
0610300051,2007,01,02,04,1
0610300051,2007,01,02,05,0.78
0610300051,2007,01,02,06,0.98
0610300051,2007,01,02,07,0.75
0610300051,2007,01,02,08,1.67
0610300051,2007,01,02,09,1.4
0610300051,2007,01,02,10,2.06
0610300051,2007,01,02,11,2.33
0610300051,2007,01,02,12,2.25
0610300051,2007,01,02,13,2.19
0610300051,2007,01,02,14,2
0610300051,2007,01,02,15,1.34
0610300051,2007,01,02,16,0.31
0610300051,2007,01,02,17,0.25
0610300051,2007,01,02,18,0.24
0610300051,2007,01,02,19,0.3
0610300051,2007,01,02,20,0.21
0610300051,2007,01,02,21,0.3
0610300051,2007,01,02,22,0.21
0610300051,2007,01,02,23,0.19
0610300051,2007,01,03,00,0.26
0610300051,2007,01,03,01,0.25
0610300051,2007,01,03,02,0.15
0610300051,2007,01,03,03,0.14
0610300051,2007,01,03,04,0.12
0610300051,2007,01,03,05,0.12
0610300051,2007,01,03,06,0.14
0610300051,2007,01,03,07,0.2
0610300051,2007,01,03,08,0.65
0610300051,2007,01,03,09,0.72
0610300051,2007,01,03,10,0.62
0610300051,2007,01,03,11,0.46
0610300051,2007,01,03,12,0.58
0610300051,2007,01,03,13,0.65
0610300051,2007,01,03,14,0.48
0610300051,2007,01,03,15,0.33
0610300051,2007,01,03,16,0.3
0610300051,2007,01,03,17,0.37
0610300051,2007,01,03,18,0.31
0610300051,2007,01,03,19,1.45
0610300051,2007,01,03,20,1.46
0610300051,2007,01,03,21,1.47
0610300051,2007,01,03,22,1.6
0610300051,2007,01,03,23,1.55
0610300051,2007,01,04,00,1.19
0610300051,2007,01,04,01,1.05
0610300051,2007,01,04,02,0.65
0610300051,2007,01,04,03,0.3
0610300051,2007,01,04,04,0.34
0610300051,2007,01,04,05,0.21
0610300051,2007,01,04,06,1.28
0610300051,2007,01,04,07,2.46
0610300051,2007,01,04,08,2.35
0610300051,2007,01,04,09,3.31
0610300051,2007,01,04,10,3.53
0610300051,2007,01,04,11,3.35
0610300051,2007,01,04,12,3.31
0610300051,2007,01,04,13,3.34
0610300051,2007,01,04,14,3.27
0610300051,2007,01,04,15,2.68
0610300051,2007,01,04,16,2.84
0610300051,2007,01,04,17,2.91
0610300051,2007,01,04,18,3.08
0610300051,2007,01,04,19,3.21
0610300051,2007,01,04,20,2.99
0610300051,2007,01,04,21,2.77
0610300051,2007,01,04,22,3.02
0610300051,2007,01,04,23,2.96
0610300051,2007,01,05,00,3.13
0610300051,2007,01,05,01,2.83
0610300051,2007,01,05,02,2.89
0610300051,2007,01,05,03,2.86
0610300051,2007,01,05,04,2.33
0610300051,2007,01,05,05,1.94
0610300051,2007,01,05,06,1.7
0610300051,2007,01,05,07,2.18
0610300051,2007,01,05,08,2.51
0610300051,2007,01,05,09,3.09
0610300051,2007,01,05,10,3.36
0610300051,2007,01,05,11,3.44
0610300051,2007,01,05,12,3.43
0610300051,2007,01,05,13,3.42
0610300051,2007,01,05,14,3.24
0610300051,2007,01,05,15,2.97
0610300051,2007,01,05,16,2.13
0610300051,2007,01,05,17,2
0610300051,2007,01,05,18,1.54
0610300051,2007,01,05,19,1.74
0610300051,2007,01,05,20,1.44
0610300051,2007,01,05,21,0.57
0610300051,2007,01,05,22,0.86
0610300051,2007,01,05,23,1.26
0610300051,2007,01,06,00,1.39
0610300051,2007,01,06,01,0.9
0610300051,2007,01,06,02,0.63
0610300051,2007,01,06,03,1.46
0610300051,2007,01,06,04,1.06
0610300051,2007,01,06,05,0.73
0610300051,2007,01,06,06,0.61
0610300051,2007,01,06,07,0.43
0610300051,2007,01,06,08,0.85
0610300051,2007,01,06,09,1.59
0610300051,2007,01,06,10,1.96
0610300051,2007,01,06,11,2.17
0610300051,2007,01,06,12,2.39
0610300051,2007,01,06,13,2.54
0610300051,2007,01,06,14,2.27
0610300051,2007,01,06,15,1.87
0610300051,2007,01,06,16,1.58
0610300051,2007,01,06,17,0.77
0610300051,2007,01,06,18,1
0610300051,2007,01,06,19,0.86
0610300051,2007,01,06,20,1.03
0610300051,2007,01,06,21,0.24
0610300051,2007,01,06,22,0.23
0610300051,2007,01,06,23,0.3
0610300051,2007,01,07,00,0.46
0610300051,2007,01,07,01,0.9
0610300051,2007,01,07,02,0.96
0610300051,2007,01,07,03,0.9
0610300051,2007,01,07,04,1.23
0610300051,2007,01,07,05,1.18
0610300051,2007,01,07,06,0.99
0610300051,2007,01,07,07,1.4
0610300051,2007,01,07,08,2.07
0610300051,2007,01,07,09,2.26
0610300051,2007,01,07,10,2.48
0610300051,2007,01,07,11,2.6
0610300051,2007,01,07,12,2.79
0610300051,2007,01,07,13,3.08
0610300051,2007,01,07,14,3.02
0610300051,2007,01,07,15,2.32
0610300051,2007,01,07,16,0.35
0610300051,2007,01,07,17,0.51
0610300051,2007,01,07,18,1.1
0610300051,2007,01,07,19,1.36
0610300051,2007,01,07,20,2.29
0610300051,2007,01,07,21,2.56
0610300051,2007,01,07,22,2.85
0610300051,2007,01,07,23,2.68
0610300051,2007,01,08,00,2.79
0610300051,2007,01,08,01,2.11
0610300051,2007,01,08,02,2.27
0610300051,2007,01,08,03,1.77
0610300051,2007,01,08,04,1.95
0610300051,2007,01,08,05,2.13
0610300051,2007,01,08,06,2.53
0610300051,2007,01,08,07,2.61
0610300051,2007,01,08,08,2.61
0610300051,2007,01,08,09,2.68
0610300051,2007,01,08,10,2.87
0610300051,2007,01,08,11,3.04
0610300051,2007,01,08,12,2.92
0610300051,2007,01,08,13,3.09
0610300051,2007,01,08,14,2.81
0610300051,2007,01,08,15,2.46
0610300051,2007,01,08,16,1.94
0610300051,2007,01,08,17,1.02
0610300051,2007,01,08,18,0.61
0610300051,2007,01,08,19,0.47
0610300051,2007,01,08,20,0.24
0610300051,2007,01,08,21,0.39
0610300051,2007,01,08,22,0.32
0610300051,2007,01,08,23,0.25
0610300051,2007,01,09,00,0.39
0610300051,2007,01,09,01,0.19
0610300051,2007,01,09,02,0.34
0610300051,2007,01,09,03,0.14
0610300051,2007,01,09,04,0.13
0610300051,2007,01,09,05,0.18
0610300051,2007,01,09,06,0.2
0610300051,2007,01,09,07,0.23
0610300051,2007,01,09,08,0.3
0610300051,2007,01,09,09,0.72
0610300051,2007,01,09,10,1.19
0610300051,2007,01,09,11,1.69
0610300051,2007,01,09,12,1.98
0610300051,2007,01,09,13,1.83
0610300051,2007,01,09,14,1.53
0610300051,2007,01,09,15,1.19
0610300051,2007,01,09,16,0.23
0610300051,2007,01,09,17,0.26
0610300051,2007,01,09,18,0.27
0610300051,2007,01,09,19,0.27
0610300051,2007,01,09,20,0.22
0610300051,2007,01,09,21,0.21
0610300051,2007,01,09,22,0.22
0610300051,2007,01,09,23,0.23
0610300051,2007,01,10,00,0.17
0610300051,2007,01,10,01,0.14
0610300051,2007,01,10,02,0.5
0610300051,2007,01,10,03,0.41
0610300051,2007,01,10,04,0.32
0610300051,2007,01,10,05,0.24
0610300051,2007,01,10,06,0.14
0610300051,2007,01,10,07,0.24
0610300051,2007,01,10,08,0.87
0610300051,2007,01,10,09,1.38
0610300051,2007,01,10,10,1.68
0610300051,2007,01,10,11,1.95
0610300051,2007,01,10,12,3.3
0610300051,2007,01,10,13,4.07
0610300051,2007,01,10,14,3.66
0610300051,2007,01,10,15,3.47
0610300051,2007,01,10,16,3.42
0610300051,2007,01,10,17,3.41
0610300051,2007,01,10,18,3.35
0610300051,2007,01,10,19,3.38
0610300051,2007,01,10,20,3.47
0610300051,2007,01,10,21,3.63
0610300051,2007,01,10,22,3.5
0610300051,2007,01,10,23,3.58
0610300051,2007,01,11,00,3.41
0610300051,2007,01,11,01,3.37
0610300051,2007,01,11,02,2.9
0610300051,2007,01,11,03,2.91
0610300051,2007,01,11,04,1.46
0610300051,2007,01,11,05,1.77
0610300051,2007,01,11,06,1.55
0610300051,2007,01,11,07,1.01
0610300051,2007,01,11,08,2.16
0610300051,2007,01,11,09,2.82
0610300051,2007,01,11,10,3.17
0610300051,2007,01,11,11,3.41
0610300051,2007,01,11,12,3.44
0610300051,2007,01,11,13,3.42
0610300051,2007,01,11,14,3.25
0610300051,2007,01,11,15,2.98
0610300051,2007,01,11,16,2.14
0610300051,2007,01,11,17,1.04
0610300051,2007,01,11,18,2.08
0610300051,2007,01,11,19,3.07
0610300051,2007,01,11,20,3.19
0610300051,2007,01,11,21,3.21
0610300051,2007,01,11,22,3.35
0610300051,2007,01,11,23,3.34
0610300051,2007,01,12,00,3.4
0610300051,2007,01,12,01,3.4
0610300051,2007,01,12,02,3.27
0610300051,2007,01,12,03,3.03
0610300051,2007,01,12,04,3
0610300051,2007,01,12,05,2.91
0610300051,2007,01,12,06,2.9
0610300051,2007,01,12,07,2.99
0610300051,2007,01,12,08,3.05
0610300051,2007,01,12,09,3.08
0610300051,2007,01,12,10,3.13
0610300051,2007,01,12,11,3.25
0610300051,2007,01,12,12,3.33
0610300051,2007,01,12,13,3.35
0610300051,2007,01,12,14,3.31
0610300051,2007,01,12,15,3.27
0610300051,2007,01,12,16,3.21
0610300051,2007,01,12,17,3.19
0610300051,2007,01,12,18,3.31
0610300051,2007,01,12,19,2.82
0610300051,2007,01,12,20,2.91
0610300051,2007,01,12,21,2.75
0610300051,2007,01,12,22,2.63
0610300051,2007,01,12,23,2.83
0610300051,2007,01,13,00,2.49
0610300051,2007,01,13,01,1.89
0610300051,2007,01,13,02,2.35
0610300051,2007,01,13,03,1.88
0610300051,2007,01,13,04,2.21
0610300051,2007,01,13,05,1.17
0610300051,2007,01,13,06,0.5
0610300051,2007,01,13,07,1.66
0610300051,2007,01,13,08,1.99
0610300051,2007,01,13,09,2.7
0610300051,2007,01,13,10,2.93
0610300051,2007,01,13,11,3.08
0610300051,2007,01,13,12,3.27
0610300051,2007,01,13,13,3.38
0610300051,2007,01,13,14,3.21
0610300051,2007,01,13,15,2.82
0610300051,2007,01,13,16,1.57
0610300051,2007,01,13,17,0.68
0610300051,2007,01,13,18,0.63
0610300051,2007,01,13,19,0.43
0610300051,2007,01,13,20,0.4
0610300051,2007,01,13,21,0.34
0610300051,2007,01,13,22,0.43
0610300051,2007,01,13,23,0.42
0610300051,2007,01,14,00,0.28
0610300051,2007,01,14,01,0.45
0610300051,2007,01,14,02,0.34
0610300051,2007,01,14,03,0.83
0610300051,2007,01,14,04,1.33
0610300051,2007,01,14,05,0.67
0610300051,2007,01,14,06,0.42
0610300051,2007,01,14,07,0.95
0610300051,2007,01,14,08,2.67
0610300051,2007,01,14,09,3.31
0610300051,2007,01,14,10,3.52
0610300051,2007,01,14,11,3.62
0610300051,2007,01,14,12,3.72
0610300051,2007,01,14,13,3.74
0610300051,2007,01,14,14,3.6
0610300051,2007,01,14,15,3.26
0610300051,2007,01,14,16,2.49
0610300051,2007,01,14,17,1.09
0610300051,2007,01,14,18,1.7
0610300051,2007,01,14,19,0.38
0610300051,2007,01,14,20,0.82
0610300051,2007,01,14,21,0.35
0610300051,2007,01,14,22,0.65
0610300051,2007,01,14,23,0.95
0610300051,2007,01,15,00,0.59
0610300051,2007,01,15,01,1.12
0610300051,2007,01,15,02,0.89
0610300051,2007,01,15,03,0.86
0610300051,2007,01,15,04,1
0610300051,2007,01,15,05,0.66
0610300051,2007,01,15,06,1
0610300051,2007,01,15,07,0.9
0610300051,2007,01,15,08,2.16
0610300051,2007,01,15,09,2.78
0610300051,2007,01,15,10,3.14
0610300051,2007,01,15,11,3.3
0610300051,2007,01,15,12,3.4
0610300051,2007,01,15,13,3.56
0610300051,2007,01,15,14,3.45
0610300051,2007,01,15,15,3.04
0610300051,2007,01,15,16,0.89
0610300051,2007,01,15,17,0.58
0610300051,2007,01,15,18,0.43
0610300051,2007,01,15,19,0.29
0610300051,2007,01,15,20,0.32
0610300051,2007,01,15,21,0.34
0610300051,2007,01,15,22,0.31
0610300051,2007,01,15,23,0.3
0610300051,2007,01,16,00,0.3
0610300051,2007,01,16,01,0.32
0610300051,2007,01,16,02,0.23
0610300051,2007,01,16,03,0.5
0610300051,2007,01,16,04,0.32
0610300051,2007,01,16,05,0.33
0610300051,2007,01,16,06,0.17
0610300051,2007,01,16,07,0.31
0610300051,2007,01,16,08,1.05
0610300051,2007,01,16,09,1.43
0610300051,2007,01,16,10,1.82
0610300051,2007,01,16,11,2.41
0610300051,2007,01,16,12,2.49
0610300051,2007,01,16,13,2.35
0610300051,2007,01,16,14,1.91
0610300051,2007,01,16,15,1.29
0610300051,2007,01,16,16,0.4
0610300051,2007,01,16,17,0.31
0610300051,2007,01,16,18,0.41
0610300051,2007,01,16,19,1.28
0610300051,2007,01,16,20,1.57
0610300051,2007,01,16,21,1.1
0610300051,2007,01,16,22,1.38
0610300051,2007,01,16,23,0.94
0610300051,2007,01,17,00,0.28
0610300051,2007,01,17,01,1.19
0610300051,2007,01,17,02,2.94
0610300051,2007,01,17,03,2.88
0610300051,2007,01,17,04,3.03
0610300051,2007,01,17,05,3.1
0610300051,2007,01,17,06,2.85
0610300051,2007,01,17,07,2.83
0610300051,2007,01,17,08,3.09
0610300051,2007,01,17,09,3.25
0610300051,2007,01,17,10,3.36
0610300051,2007,01,17,11,3.52
0610300051,2007,01,17,12,3.55
0610300051,2007,01,17,13,3.57
0610300051,2007,01,17,14,3.54
0610300051,2007,01,17,15,3.39
0610300051,2007,01,17,16,2.84
0610300051,2007,01,17,17,2.96
0610300051,2007,01,17,18,3.02
0610300051,2007,01,17,19,2.05
0610300051,2007,01,17,20,2.23
0610300051,2007,01,17,21,2.62
0610300051,2007,01,17,22,2.74
0610300051,2007,01,17,23,3.04
0610300051,2007,01,18,00,2.45
0610300051,2007,01,18,01,2.48
0610300051,2007,01,18,02,1.57
0610300051,2007,01,18,03,1.42
0610300051,2007,01,18,04,1.22
0610300051,2007,01,18,05,0.48
0610300051,2007,01,18,06,0.55
0610300051,2007,01,18,07,0.46
0610300051,2007,01,18,08,1.65
0610300051,2007,01,18,09,2.83
0610300051,2007,01,18,10,3.3
0610300051,2007,01,18,11,3.68
0610300051,2007,01,18,12,3.5
0610300051,2007,01,18,13,3.5
0610300051,2007,01,18,14,3.59
0610300051,2007,01,18,15,3.06
0610300051,2007,01,18,16,2.38
0610300051,2007,01,18,17,2.97
0610300051,2007,01,18,18,2.17
0610300051,2007,01,18,19,2.37
0610300051,2007,01,18,20,2.25
0610300051,2007,01,18,21,2.96
0610300051,2007,01,18,22,1.29
0610300051,2007,01,18,23,1.46
0610300051,2007,01,19,00,1.67
0610300051,2007,01,19,01,1.2
0610300051,2007,01,19,02,1.85
0610300051,2007,01,19,03,2.52
0610300051,2007,01,19,04,2.17
0610300051,2007,01,19,05,0.99
0610300051,2007,01,19,06,1.26
0610300051,2007,01,19,07,1.46
0610300051,2007,01,19,08,2.07
0610300051,2007,01,19,09,1.83
0610300051,2007,01,19,10,2.03
0610300051,2007,01,19,11,2.05
0610300051,2007,01,19,12,1.67
0610300051,2007,01,19,13,1.85
0610300051,2007,01,19,14,1.69
0610300051,2007,01,19,15,1.51
0610300051,2007,01,19,16,0.94
0610300051,2007,01,19,17,0.29
0610300051,2007,01,19,18,0.32
0610300051,2007,01,19,19,0.17
0610300051,2007,01,19,20,0.95
0610300051,2007,01,19,21,1.35
0610300051,2007,01,19,22,0.95
0610300051,2007,01,19,23,1.89
0610300051,2007,01,20,00,1.82
0610300051,2007,01,20,01,1.48
0610300051,2007,01,20,02,1.04
0610300051,2007,01,20,03,0.89
0610300051,2007,01,20,04,1.49
0610300051,2007,01,20,05,1.21
0610300051,2007,01,20,06,0.51
0610300051,2007,01,20,07,1.62
0610300051,2007,01,20,08,1.48
0610300051,2007,01,20,09,2.55
0610300051,2007,01,20,10,3.63
0610300051,2007,01,20,11,3.87
0610300051,2007,01,20,12,3.86
0610300051,2007,01,20,13,3.79
0610300051,2007,01,20,14,3.77
0610300051,2007,01,20,15,3.4
0610300051,2007,01,20,16,3.08
0610300051,2007,01,20,17,3.16
0610300051,2007,01,20,18,3.26
0610300051,2007,01,20,19,3.44
0610300051,2007,01,20,20,3.5
0610300051,2007,01,20,21,3.51
0610300051,2007,01,20,22,3.18
0610300051,2007,01,20,23,3.17
0610300051,2007,01,21,00,3.45
0610300051,2007,01,21,01,3.44
0610300051,2007,01,21,02,3.39
0610300051,2007,01,21,03,3.35
0610300051,2007,01,21,04,3.35
0610300051,2007,01,21,05,3.37
0610300051,2007,01,21,06,3.22
0610300051,2007,01,21,07,3.32
0610300051,2007,01,21,08,3.48
0610300051,2007,01,21,09,3.55
0610300051,2007,01,21,10,3.63
0610300051,2007,01,21,11,3.69
0610300051,2007,01,21,12,3.72
0610300051,2007,01,21,13,3.78
0610300051,2007,01,21,14,3.6
0610300051,2007,01,21,15,3.58
0610300051,2007,01,21,16,3.52
0610300051,2007,01,21,17,3.56
0610300051,2007,01,21,18,3.3
0610300051,2007,01,21,19,2.81
0610300051,2007,01,21,20,2.5
0610300051,2007,01,21,21,2
0610300051,2007,01,21,22,1.89
0610300051,2007,01,21,23,1.54
0610300051,2007,01,22,00,1.48
0610300051,2007,01,22,01,2.32
0610300051,2007,01,22,02,1.7
0610300051,2007,01,22,03,1.63
0610300051,2007,01,22,04,1.36
0610300051,2007,01,22,05,1.26
0610300051,2007,01,22,06,1.11
0610300051,2007,01,22,07,1.38
0610300051,2007,01,22,08,2.42
0610300051,2007,01,22,09,2.73
0610300051,2007,01,22,10,3.04
0610300051,2007,01,22,11,3.1
0610300051,2007,01,22,12,3.08
0610300051,2007,01,22,13,3.38
0610300051,2007,01,22,14,3.63
0610300051,2007,01,22,15,3.02
0610300051,2007,01,22,16,1.11
0610300051,2007,01,22,17,0.31
0610300051,2007,01,22,18,0.29
0610300051,2007,01,22,19,0.35
0610300051,2007,01,22,20,0.42
0610300051,2007,01,22,21,0.48
0610300051,2007,01,22,22,0.38
0610300051,2007,01,22,23,0.59
0610300051,2007,01,23,00,0.37
0610300051,2007,01,23,01,0.57
0610300051,2007,01,23,02,1.21
0610300051,2007,01,23,03,0.94
0610300051,2007,01,23,04,0.65
0610300051,2007,01,23,05,0.43
0610300051,2007,01,23,06,0.51
0610300051,2007,01,23,07,1.03
0610300051,2007,01,23,08,1.18
0610300051,2007,01,23,09,1.09
0610300051,2007,01,23,10,1.99
0610300051,2007,01,23,11,2.7
0610300051,2007,01,23,12,3.1
0610300051,2007,01,23,13,3.29
0610300051,2007,01,23,14,3.61
0610300051,2007,01,23,15,2.91
0610300051,2007,01,23,16,0.49
0610300051,2007,01,23,17,0.33
0610300051,2007,01,23,18,0.24
0610300051,2007,01,23,19,0.35
0610300051,2007,01,23,20,0.27
0610300051,2007,01,23,21,0.25
0610300051,2007,01,23,22,0.44
0610300051,2007,01,23,23,0.39
0610300051,2007,01,24,00,0.63
0610300051,2007,01,24,01,0.31
0610300051,2007,01,24,02,0.4
0610300051,2007,01,24,03,0.31
0610300051,2007,01,24,04,0.21
0610300051,2007,01,24,05,0.14
0610300051,2007,01,24,06,0.26
0610300051,2007,01,24,07,0.33
0610300051,2007,01,24,08,0.72
0610300051,2007,01,24,09,1.18
0610300051,2007,01,24,10,2.22
0610300051,2007,01,24,11,2.84
0610300051,2007,01,24,12,2.51
0610300051,2007,01,24,13,3.03
0610300051,2007,01,24,14,3.1
0610300051,2007,01,24,15,2.43
0610300051,2007,01,24,16,1.08
0610300051,2007,01,24,17,0.26
0610300051,2007,01,24,18,0.4
0610300051,2007,01,24,19,0.28
0610300051,2007,01,24,20,0.34
0610300051,2007,01,24,21,0.6
0610300051,2007,01,24,22,0.8
0610300051,2007,01,24,23,1.14
0610300051,2007,01,25,00,0.91
0610300051,2007,01,25,01,1.01
0610300051,2007,01,25,02,1.11
0610300051,2007,01,25,03,0.69
0610300051,2007,01,25,04,0.7
0610300051,2007,01,25,05,1.29
0610300051,2007,01,25,06,0.98
0610300051,2007,01,25,07,1
0610300051,2007,01,25,08,0.86
0610300051,2007,01,25,09,1.68
0610300051,2007,01,25,10,2.33
0610300051,2007,01,25,11,2.69
0610300051,2007,01,25,12,2.75
0610300051,2007,01,25,13,4.13
0610300051,2007,01,25,14,4.29
0610300051,2007,01,25,15,3.56
0610300051,2007,01,25,16,1.08
0610300051,2007,01,25,17,0.26
0610300051,2007,01,25,18,0.38
0610300051,2007,01,25,19,0.29
0610300051,2007,01,25,20,0.51
0610300051,2007,01,25,21,0.32
0610300051,2007,01,25,22,0.69
0610300051,2007,01,25,23,0.51
0610300051,2007,01,26,00,1.09
0610300051,2007,01,26,01,1.42
0610300051,2007,01,26,02,0.81
0610300051,2007,01,26,03,0.3
0610300051,2007,01,26,04,0.63
0610300051,2007,01,26,05,0.74
0610300051,2007,01,26,06,0.24
0610300051,2007,01,26,07,0.36
0610300051,2007,01,26,08,0.84
0610300051,2007,01,26,09,1.72
0610300051,2007,01,26,10,2.83
0610300051,2007,01,26,11,2.96
0610300051,2007,01,26,12,3.21
0610300051,2007,01,26,13,3.49
0610300051,2007,01,26,14,3.53
0610300051,2007,01,26,15,3.28
0610300051,2007,01,26,16,0.99
0610300051,2007,01,26,17,0.97
0610300051,2007,01,26,18,0.43
0610300051,2007,01,26,19,0.54
0610300051,2007,01,26,20,0.21
0610300051,2007,01,26,21,0.32
0610300051,2007,01,26,22,0.72
0610300051,2007,01,26,23,1.32
0610300051,2007,01,27,00,1.63
0610300051,2007,01,27,01,1.33
0610300051,2007,01,27,02,1.14
0610300051,2007,01,27,03,0.22
0610300051,2007,01,27,04,0.2
0610300051,2007,01,27,05,0.19
0610300051,2007,01,27,06,0.53
0610300051,2007,01,27,07,0.85
0610300051,2007,01,27,08,1.19
0610300051,2007,01,27,09,1.2
0610300051,2007,01,27,10,1.5
0610300051,2007,01,27,11,2.27
0610300051,2007,01,27,12,3.41
0610300051,2007,01,27,13,3.54
0610300051,2007,01,27,14,3.92
0610300051,2007,01,27,15,3.8
0610300051,2007,01,27,16,2.44
0610300051,2007,01,27,17,1.92
0610300051,2007,01,27,18,0.76
0610300051,2007,01,27,19,1.78
0610300051,2007,01,27,20,1.32
0610300051,2007,01,27,21,1.33
0610300051,2007,01,27,22,1.87
0610300051,2007,01,27,23,1.68
0610300051,2007,01,28,00,1.37
0610300051,2007,01,28,01,1.88
0610300051,2007,01,28,02,1.51
0610300051,2007,01,28,03,1.11
0610300051,2007,01,28,04,0.66
0610300051,2007,01,28,05,0.54
0610300051,2007,01,28,06,0.3
0610300051,2007,01,28,07,0.41
0610300051,2007,01,28,08,1.6
0610300051,2007,01,28,09,2.32
0610300051,2007,01,28,10,2.46
0610300051,2007,01,28,11,2.71
0610300051,2007,01,28,12,2.74
0610300051,2007,01,28,13,3.15
0610300051,2007,01,28,14,3.11
0610300051,2007,01,28,15,3.15
0610300051,2007,01,28,16,2.39
0610300051,2007,01,28,17,1.59
0610300051,2007,01,28,18,1.64
0610300051,2007,01,28,19,0.35
0610300051,2007,01,28,20,1.08
0610300051,2007,01,28,21,1.16
0610300051,2007,01,28,22,1.36
0610300051,2007,01,28,23,1.95
0610300051,2007,01,29,00,2.16
0610300051,2007,01,29,01,2.27
0610300051,2007,01,29,02,2.07
0610300051,2007,01,29,03,1.76
0610300051,2007,01,29,04,1.8
0610300051,2007,01,29,05,0.69
0610300051,2007,01,29,06,0.38
0610300051,2007,01,29,07,0.49
0610300051,2007,01,29,08,1.43
0610300051,2007,01,29,09,2.1
0610300051,2007,01,29,10,2.77
0610300051,2007,01,29,11,3.41
0610300051,2007,01,29,12,3.61
0610300051,2007,01,29,13,3.87
0610300051,2007,01,29,14,4.15
0610300051,2007,01,29,15,3.67
0610300051,2007,01,29,16,2.62
0610300051,2007,01,29,17,1.11
0610300051,2007,01,29,18,0.95
0610300051,2007,01,29,19,0.94
0610300051,2007,01,29,20,0.48
0610300051,2007,01,29,21,1.9
0610300051,2007,01,29,22,2.83
0610300051,2007,01,29,23,1.74
0610300051,2007,01,30,00,2.36
0610300051,2007,01,30,01,1.72
0610300051,2007,01,30,02,1.58
0610300051,2007,01,30,03,1.26
0610300051,2007,01,30,04,1
0610300051,2007,01,30,05,0.8
0610300051,2007,01,30,06,0.23
0610300051,2007,01,30,07,0.69
0610300051,2007,01,30,08,1.21
0610300051,2007,01,30,09,2.21
0610300051,2007,01,30,10,2.42
0610300051,2007,01,30,11,2.58
0610300051,2007,01,30,12,2.95
0610300051,2007,01,30,13,3.31
0610300051,2007,01,30,14,3.48
0610300051,2007,01,30,15,3.33
0610300051,2007,01,30,16,1
0610300051,2007,01,30,17,0.75
0610300051,2007,01,30,18,0.28
0610300051,2007,01,30,19,0.42
0610300051,2007,01,30,20,0.41
0610300051,2007,01,30,21,0.39
0610300051,2007,01,30,22,0.62
0610300051,2007,01,30,23,0.36
0610300051,2007,01,31,00,0.82
0610300051,2007,01,31,01,1.43
0610300051,2007,01,31,02,1.23
0610300051,2007,01,31,03,1.32
0610300051,2007,01,31,04,0.26
0610300051,2007,01,31,05,0.22
0610300051,2007,01,31,06,0.22
0610300051,2007,01,31,07,0.46
0610300051,2007,01,31,08,2.1
0610300051,2007,01,31,09,1.61
0610300051,2007,01,31,10,1.83
0610300051,2007,01,31,11,2.3
0610300051,2007,01,31,12,2.68
0610300051,2007,01,31,13,3
0610300051,2007,01,31,14,3.21
0610300051,2007,01,31,15,3.18
0610300051,2007,01,31,16,1.46
0610300051,2007,01,31,17,0.75
0610300051,2007,01,31,18,0.7
0610300051,2007,01,31,19,0.52
0610300051,2007,01,31,20,0.35
0610300051,2007,01,31,21,0.26
0610300051,2007,01,31,22,0.65
0610300051,2007,01,31,23,0.45
0610300051,2007,02,01,00,0.64
0610300051,2007,02,01,01,0.25
0610300051,2007,02,01,02,0.26
0610300051,2007,02,01,03,0.58
0610300051,2007,02,01,04,0.78
0610300051,2007,02,01,05,0.83
0610300051,2007,02,01,06,0.61
0610300051,2007,02,01,07,1.03
0610300051,2007,02,01,08,1
0610300051,2007,02,01,09,1.36
0610300051,2007,02,01,10,2.09
0610300051,2007,02,01,11,3.21
0610300051,2007,02,01,12,3.58
0610300051,2007,02,01,13,3.82
0610300051,2007,02,01,14,3.76
0610300051,2007,02,01,15,3.45
0610300051,2007,02,01,16,1.41
0610300051,2007,02,01,17,1.13
0610300051,2007,02,01,18,1.14
0610300051,2007,02,01,19,0.69
0610300051,2007,02,01,20,0.31
0610300051,2007,02,01,21,0.17
0610300051,2007,02,01,22,0.31
0610300051,2007,02,01,23,0.24
0610300051,2007,02,02,00,0.44
0610300051,2007,02,02,01,0.49
0610300051,2007,02,02,02,0.5
0610300051,2007,02,02,03,1.33
0610300051,2007,02,02,04,1.26
0610300051,2007,02,02,05,0.72
0610300051,2007,02,02,06,0.21
0610300051,2007,02,02,07,0.52
0610300051,2007,02,02,08,1.1